Theta_e
345 345 344 343 344 343 342 341 341 340 339 337 336 333 330 331 326 317 323 335 333 334 338 338 338 333 324 331 323 331 332 328 333 330 332 336 336 336 332 317 316 316 315
344 344 345 338 340 340 339 340 340 339 339 339 341 333 330 331 325 319 320 337 337 336 339 335 328 334 327 326 332 324 327 326 330 331 332 332 330 330 321 316 316 316 316
344 344 345 337 338 339 338 341 339 338 337 337 338 339 328 331 327 322 320 334 338 336 336 335 327 322 325 320 327 325 330 335 334 335 333 330 324 318 316 316 317 316 315
344 344 343 338 335 337 337 339 339 337 336 335 335 336 332 330 330 325 322 323 331 333 333 329 327 319 319 317 325 330 331 334 334 335 335 328 319 316 317 318 317 316 318
344 345 343 342 336 336 336 337 336 335 334 334 333 335 331 330 331 330 327 324 324 324 327 326 320 316 315 317 323 328 332 332 332 332 333 330 320 317 317 318 317 319 321
343 347 343 344 340 335 334 334 334 334 333 334 332 332 334 331 333 332 335 335 334 325 321 321 317 316 316 317 319 325 328 329 329 330 331 325 320 317 318 318 319 320 321
343 343 343 344 344 340 338 336 334 334 333 333 332 331 334 337 338 335 339 339 336 327 318 318 317 316 316 316 317 320 325 326 327 324 320 320 317 317 318 318 319 319 321
342 343 344 344 342 341 339 339 337 335 334 334 333 332 333 335 337 337 337 339 338 332 321 316 317 318 318 318 317 316 318 322 323 324 323 323 319 318 318 319 319 319 320
341 342 342 342 340 339 337 338 337 336 335 333 333 332 331 333 335 335 338 339 337 335 321 317 318 320 319 319 318 317 316 320 324 326 325 325 325 318 318 319 319 320 320
339 341 341 342 345 340 337 336 336 336 335 333 332 331 329 329 331 334 335 337 339 336 327 317 318 319 319 319 319 318 317 319 323 326 325 324 323 319 318 319 320 320 320
324 336 341 342 340 341 339 338 337 335 334 333 331 330 328 327 327 331 333 335 338 337 333 317 317 319 319 319 319 319 318 318 322 325 324 323 323 319 318 318 319 320 321
313 315 330 337 341 340 340 340 340 339 339 334 331 329 329 328 328 328 332 334 337 337 334 325 317 318 319 319 319 319 320 320 324 326 326 325 325 322 319 319 319 320 323
309 310 312 319 331 336 340 340 339 338 339 338 331 327 329 330 329 329 334 336 334 337 336 333 320 317 318 318 318 319 320 321 325 327 327 326 325 323 319 319 320 321 323
308 308 308 309 312 321 331 336 340 338 338 338 336 331 332 335 334 334 333 334 335 335 336 336 333 321 317 318 318 320 324 323 324 327 328 325 323 321 319 320 320 321 322
309 308 308 308 307 308 312 326 333 339 337 338 338 338 338 337 337 337 337 336 335 335 335 336 335 333 321 316 317 318 324 327 325 325 325 325 323 321 319 319 319 320 321
310 309 309 309 309 308 307 309 322 331 338 337 336 336 337 337 337 338 338 336 337 335 334 335 334 335 331 320 318 321 326 328 327 327 325 325 324 322 319 319 319 320 321
311 311 311 312 311 309 309 307 309 321 332 337 337 335 336 336 336 337 337 335 336 336 334 335 334 333 333 329 327 327 327 327 327 326 325 326 326 324 321 321 320 320 321
312 312 311 311 312 311 310 309 308 309 321 336 336 334 335 335 334 335 335 336 336 336 334 335 335 335 334 330 328 328 329 329 326 324 324 324 323 323 323 324 322 320 321
314 314 313 312 312 312 312 310 309 308 309 323 336 335 333 333 333 335 336 336 337 335 334 334 335 335 335 334 331 330 330 329 329 328 326 324 324 324 325 324 323 321 322
316 316 315 315 315 313 312 311 311 310 309 309 322 335 334 333 333 332 334 335 334 335 335 334 334 334 334 333 334 333 331 330 330 330 329 327 324 323 323 323 323 321 321
316 316 315 316 315 314 313 311 312 311 311 309 309 322 334 332 331 331 335 335 335 334 334 334 333 332 331 331 332 331 331 330 329 329 328 330 328 325 323 323 323 321 322
312 313 313 313 315 315 314 312 312 312 312 311 310 309 319 332 331 329 331 331 332 332 332 332 330 329 330 330 332 332 331 329 328 328 328 328 328 328 329 326 323 322 325
310 311 311 311 313 316 314 312 312 312 312 311 312 314 313 320 330 329 330 330 331 330 330 329 327 327 327 327 328 330 329 329 327 327 327 327 327 327 325 324 323 323 326
310 311 313 312 311 315 315 312 312 313 312 312 312 313 316 315 326 328 328 331 330 330 330 329 329 329 327 325 328 329 329 329 329 326 326 326 326 325 324 324 326 326 326
311 312 313 312 311 315 315 313 312 312 311 311 311 313 316 317 318 320 326 329 330 328 328 328 328 327 325 325 327 327 327 328 327 328 327 327 326 326 326 327 327 327 326
312 312 315 314 312 315 316 315 313 313 312 310 311 313 314 316 318 322 324 326 327 327 328 327 327 325 324 326 327 326 325 327 327 327 327 327 326 326 326 325 324 323 324
Wind_Speed
1 1 7 10 12 11 9 8 7 6 6 5 3 5 7 8 8 8 10 13 12 13 12 11 11 12 11 12 12 12 12 12 12 12 12 12 10 9 10 11 11 11 11
4 2 6 11 12 11 9 7 7 6 6 4 4 4 6 7 8 8 9 11 10 10 10 7 6 7 8 8 11 11 12 13 13 12 9 6 7 7 7 9 9 10 10
4 5 5 10 12 10 9 7 7 6 6 4 3 1 4 6 6 7 8 11 12 9 8 4 3 3 3 7 11 13 15 16 13 10 9 7 6 6 7 8 9 10 10
4 6 4 9 11 10 9 8 7 6 5 4 3 1 3 4 5 6 7 10 9 7 5 3 2 3 7 9 13 16 15 14 10 5 4 6 6 6 7 8 9 10 10
3 5 5 8 10 11 10 9 8 6 5 4 3 2 0 3 3 6 9 10 7 6 4 3 4 7 9 11 13 15 14 12 10 6 4 1 5 5 6 7 8 8 9
4 6 5 6 8 9 10 9 8 7 5 4 4 2 1 3 4 7 10 8 6 4 3 3 6 8 9 10 12 14 14 10 8 4 5 3 2 4 5 6 7 7 8
4 5 6 8 8 10 10 10 10 8 7 7 5 4 3 3 3 6 8 7 5 3 3 5 8 8 8 8 10 11 12 9 6 4 2 1 2 3 4 4 5 6 6
5 6 7 6 6 10 11 11 11 10 10 9 8 6 5 6 6 7 8 9 7 4 4 6 8 7 8 8 8 9 10 8 6 4 1 1 2 2 2 3 4 5 4
7 8 7 7 4 8 11 12 12 12 11 10 9 9 8 8 8 8 10 10 11 6 6 7 9 8 8 8 7 7 9 9 6 4 2 1 2 3 3 2 3 3 3
6 9 10 10 6 7 10 12 12 13 13 13 12 12 11 11 11 10 11 12 14 10 7 9 11 10 8 8 8 7 8 9 7 5 6 4 5 5 4 3 3 2 2
6 7 10 13 12 12 11 10 10 12 14 15 16 15 15 13 13 12 12 12 16 14 10 11 12 12 10 9 8 8 8 10 8 5 4 4 5 6 5 5 4 4 3
13 12 10 12 17 17 15 15 13 13 15 17 18 18 17 15 14 13 12 13 15 17 14 13 14 14 14 12 10 9 9 10 9 8 6 7 7 8 7 6 6 6 5
18 18 16 16 15 18 22 22 21 18 16 16 21 20 18 17 16 16 15 15 17 20 20 17 16 17 16 15 14 12 10 12 11 11 10 11 10 10 9 8 8 8 7
20 19 21 21 21 19 19 21 23 22 18 19 19 20 19 16 14 18 16 16 16 19 21 20 18 17 18 18 17 16 12 12 15 13 14 13 12 11 11 10 10 9 9
18 17 18 20 23 24 23 22 22 26 24 24 21 19 20 17 16 17 19 22 21 20 21 23 21 19 19 20 20 19 17 16 16 14 18 16 16 14 12 12 12 12 11
22 22 21 21 20 21 26 26 25 24 28 27 25 22 25 24 22 22 23 23 23 22 23 23 22 21 18 18 19 22 20 20 20 19 18 19 18 17 16 14 14 14 14
21 22 22 22 24 25 22 25 28 28 25 26 23 24 24 23 28 23 27 28 29 25 22 21 19 19 17 17 18 18 20 21 24 24 22 22 22 23 21 18 15 16 17
15 19 25 27 27 28 29 26 26 31 29 30 26 27 29 27 28 27 30 30 30 27 25 24 25 25 24 21 22 22 24 25 23 24 23 23 23 22 21 20 18 16 17
21 23 26 29 31 30 29 30 27 27 33 31 33 28 29 30 30 33 32 33 31 30 28 24 27 30 27 26 27 27 27 25 23 23 24 23 23 24 24 24 22 19 19
17 21 24 24 25 28 28 28 30 30 31 35 35 35 30 29 28 31 30 30 30 29 29 28 26 27 28 26 24 23 27 28 28 30 30 30 29 29 28 28 26 24 22
23 27 27 27 26 25 28 30 31 32 30 33 37 36 36 31 32 32 32 29 28 29 27 24 22 22 20 21 19 22 25 24 26 27 28 27 28 31 31 30 29 29 26
30 31 33 29 27 26 25 32 29 32 32 30 31 35 37 36 31 32 33 32 30 30 27 26 24 21 22 22 22 23 26 26 29 30 31 32 31 32 31 31 32 30 28
30 29 31 33 29 25 23 26 32 29 32 29 29 29 32 37 35 32 29 32 34 33 28 27 23 22 25 26 25 21 10 14 19 22 24 26 27 27 28 27 30 31 30
28 27 29 30 30 25 21 23 25 28 32 30 32 29 26 29 39 36 31 30 32 32 31 28 26 24 24 27 24 27 30 33 25 23 25 25 25 26 29 28 28 28 27
27 26 31 29 18 22 17 20 21 26 29 27 29 31 28 26 29 38 38 32 30 29 29 29 28 28 27 26 26 28 30 33 36 38 31 26 27 31 27 28 28 29 23
23 24 23 19 14 15 16 19 22 23 22 26 26 28 27 29 28 30 36 35 37 32 36 32 29 28 26 24 26 29 30 29 29 31 34 33 24 29 31 28 25 27 27
Wind_Direction
264 117 189 181 167 165 156 155 153 143 131 109 90 95 88 84 80 95 111 108 105 105 97 96 105 98 100 102 115 121 101 99 95 98 101 97 92 76 57 44 49 53 57
218 191 199 193 178 174 165 160 158 152 140 116 93 64 88 90 96 110 123 116 119 114 116 110 109 104 104 113 106 114 101 94 89 82 71 70 76 67 46 50 49 50 51
177 166 209 192 185 181 172 165 160 153 146 134 130 65 51 95 99 115 133 133 122 128 139 141 116 159 128 123 120 116 114 99 89 81 62 58 48 50 53 51 48 47 48
134 160 215 192 185 188 183 172 169 166 157 151 147 147 14 94 111 121 136 149 147 144 160 184 135 147 141 126 124 122 116 100 91 108 61 59 51 52 52 47 44 48 55
142 152 187 190 194 190 192 187 183 179 178 179 168 173 273 130 132 134 140 140 137 160 169 136 121 130 134 132 133 135 126 117 115 119 134 27 24 52 57 51 49 55 60
151 170 176 213 207 201 197 198 196 193 194 203 189 214 164 150 163 154 158 146 128 126 152 136 145 142 139 138 141 146 145 143 143 163 231 266 11 38 47 45 48 54 59
150 190 203 219 229 218 209 206 205 206 207 218 215 222 216 181 182 179 177 180 161 143 151 160 161 157 150 149 149 156 161 159 162 175 166 50 36 24 36 41 45 51 59
175 195 205 221 244 229 219 220 218 216 218 223 222 217 214 209 208 210 202 200 203 204 190 179 179 179 172 163 161 164 169 173 163 170 297 27 355 360 24 36 38 44 52
185 204 224 224 236 221 230 232 229 229 231 230 231 226 223 221 223 222 212 215 205 210 210 199 195 192 181 178 176 172 171 174 177 199 240 324 339 332 337 358 17 27 34
200 216 221 229 221 225 231 240 243 238 237 235 236 239 236 230 226 225 220 219 213 217 219 213 206 207 199 189 185 180 178 181 190 213 243 279 301 308 307 314 327 341 340
265 229 222 224 230 241 245 234 238 246 248 243 240 240 241 238 236 230 228 228 220 216 223 223 216 215 215 209 203 196 189 188 196 206 233 262 292 297 293 293 295 297 302
270 265 248 237 235 236 239 244 245 250 259 254 246 244 244 243 243 239 229 234 223 220 224 226 224 222 221 222 218 210 205 202 215 226 254 271 275 284 282 278 278 277 281
275 268 260 254 250 242 236 235 240 235 247 259 248 245 246 246 243 235 227 236 232 225 226 227 226 225 228 228 228 223 214 218 221 231 246 261 269 277 276 273 272 271 269
279 272 269 263 256 253 252 243 239 238 244 251 251 247 242 240 230 228 229 239 247 239 236 235 235 235 232 232 234 231 225 221 226 234 241 253 262 269 272 270 272 271 269
292 289 281 272 265 258 252 252 243 234 233 246 253 253 248 238 225 233 241 246 254 253 246 240 241 242 239 234 237 235 232 234 238 240 243 251 261 264 268 269 268 270 270
302 294 295 285 279 268 257 249 249 243 234 237 244 246 234 235 233 242 241 248 252 258 250 242 242 240 240 238 235 233 234 240 241 246 248 253 260 265 267 266 266 265 264
304 302 294 293 284 280 273 258 247 245 240 235 242 248 240 242 229 236 238 245 249 257 251 238 239 243 241 238 246 248 246 251 251 245 249 253 259 268 270 268 270 267 263
280 281 283 282 282 281 278 269 257 246 241 233 235 238 242 248 233 233 241 245 249 249 250 242 230 236 238 237 245 245 251 262 260 253 251 254 258 265 269 270 273 270 264
288 285 278 276 273 272 274 269 262 254 245 236 233 236 241 243 237 232 233 243 249 247 245 244 241 236 234 232 237 243 252 258 262 264 258 255 255 260 266 271 274 274 271
282 280 284 280 281 269 266 267 268 260 249 241 236 233 240 241 241 241 240 237 240 241 243 244 240 241 244 247 242 252 255 258 266 267 265 262 254 254 260 265 269 273 273
283 283 285 283 277 281 259 259 261 262 258 247 239 236 235 242 242 239 236 236 235 236 235 236 241 243 243 250 250 258 262 263 262 262 275 270 264 262 260 258 263 268 267
291 285 280 282 274 270 278 253 259 261 261 258 255 245 239 236 243 242 241 239 238 234 233 236 238 249 250 248 248 256 268 271 265 266 269 265 270 270 271 265 261 264 265
312 309 293 276 267 265 264 268 250 257 257 251 251 254 246 238 238 242 241 239 237 237 231 237 243 245 251 260 253 252 257 258 276 270 270 269 266 271 274 267 259 255 255
321 318 317 297 267 255 255 262 253 252 253 250 249 251 254 247 236 242 240 237 242 238 236 241 248 254 254 258 253 251 257 261 269 280 272 269 273 270 264 259 256 252 254
331 330 323 305 261 245 249 258 257 252 254 257 250 254 255 255 243 237 243 237 237 249 244 247 252 256 255 256 253 259 262 263 264 262 270 269 270 265 257 251 249 251 251
336 338 338 334 279 249 248 256 252 256 258 254 252 251 255 257 255 243 240 243 247 245 251 251 251 251 255 253 255 259 260 260 264 262 264 263 258 269 241 231 235 236 235